SLEIPNER A PLATF current weather conditions

sailwx.info

Wind from 340 at 41 knots

Air temperature 4.0° C
Visibility: greater than 5.4 NM
Dewpoint 1.0° C
Present weather: Light rain showers.

Last reported at 2015-Feb-01 21:20 UTC.
Time now 2015-Feb-01 22:49 UTC

Location: N 58°22' E 001°54'.
View on Google Maps.

See reports from other nearby stations

  
Tides and Currents Weather Stations Pressure Air Temp Water Temp Dewpoint Dewpoint Depression Visibility Wind Speed Wind Dir Waves Ship Positions
date/time (UTC)wind fromknots sea level pressurealtimeterstation pressurevisibilityair tempwater tempwave heightnotes
2015-Feb-01 21:20 340 41 5.4 4.0 Light rain showers.
2015-Feb-01 20:50 340 46 3.2 3.0 Light rain showers.
2015-Feb-01 20:20 340 43 5.4 3.0 Light rain showers.
2015-Feb-01 19:50 340 46 5.4 3.0 Rain showers.
2015-Feb-01 19:20 340 40 5.4 4.0 Light rain showers.
2015-Feb-01 18:50 340 36 5.4 4.0 Light rain showers.
2015-Feb-01 18:20 5.4 3.0 Light rain showers.
2015-Feb-01 17:50 340 29 2.2 3.0 Rain showers.
2015-Feb-01 17:20 350 41 5.4 4.0
2015-Feb-01 16:43 340 33 2.7 3.0 Light rain showers.
2015-Feb-01 16:20 350 29 5.4 3.0 Showers in the vicinity.
2015-Feb-01 15:50 340 35 5.4 4.0
2015-Feb-01 15:20 330 36 5.4 4.0
2015-Feb-01 14:50 340 36 5.4 5.0
2015-Feb-01 14:20 330 35 5.4 5.0
2015-Feb-01 13:20 350 30 4.9 4.0 Light rain showers.
2015-Feb-01 12:50 350 36 5.4 4.0
2015-Feb-01 12:20 350 40 5.4 5.0
2015-Feb-01 11:50 360 44 5.4 5.0
2015-Feb-01 11:20 350 43 5.4 5.0
2015-Feb-01 10:50 350 36 5.4 5.0 Light rain showers.
2015-Feb-01 10:20 350 35 5.4 5.0
2015-Feb-01 09:50 350 38 5.4 5.0 Showers in the vicinity.
2015-Feb-01 09:20 350 40 5.4 5.0
2015-Feb-01 08:50 350 41 5.4 5.0 Light rain showers.
2015-Feb-01 08:20 350 41 4.9 5.0
2015-Feb-01 07:50 360 35 5.4 6.0
2015-Feb-01 07:20 010 37 5.4 6.0
2015-Feb-01 06:50 360 41 5.4 6.0
2015-Feb-01 06:20 360 43 5.4 6.0
2015-Feb-01 05:50 360 44 5.4 6.0
2015-Feb-01 05:20 360 40 5.4 6.0
2015-Feb-01 04:50 360 42 5.4 6.0
2015-Feb-01 04:20 360 38 5.4 5.0 Light rain showers.
2015-Feb-01 03:50 010 35 5.4 5.0
2015-Feb-01 03:20 360 29 5.4 5.0 Light rain showers.
2015-Feb-01 02:50 350 33 gusting 45 5.4 5.0 Light rain showers.
2015-Feb-01 02:20 350 27 5.4 5.0
2015-Feb-01 01:50 350 23 5.4 5.0
2015-Feb-01 01:20 350 23 5.4 4.0
2015-Feb-01 00:50 340 18 5.4 4.0
2015-Feb-01 00:20 360 20 5.4 4.0 Light rain showers.
2015-Jan-31 23:50 360 18 5.4 4.0
2015-Jan-31 23:20 020 15 5.4 4.0
2015-Jan-31 22:50 030 17 5.4 4.0
2015-Jan-31 22:20 050 22 5.4 4.0
2015-Jan-31 21:50 060 26 5.4 4.0
2015-Jan-31 21:20 060 30 5.4 4.0 Light rain showers.
2015-Jan-31 20:50 050 35 5.4 4.0 Light rain showers.
2015-Jan-31 20:20 060 38 5.4 4.0 Light rain.
2015-Jan-31 19:50 070 42 3.8 3.0 Light rain.
2015-Jan-31 19:20 060 41 3.2 4.0 Light rain.
2015-Jan-31 18:50 060 22 5.4 6.0
2015-Jan-31 18:20 060 19 5.4 6.0
2015-Jan-31 17:50 060 16 5.4 6.0
2015-Jan-31 17:20 070 17 5.4 6.0
2015-Jan-31 16:50 080 14 5.4 6.0
2015-Jan-31 16:20 110 13 5.4 5.0
2015-Jan-31 15:50 130 13 5.4 5.0 Light rain showers.
2015-Jan-31 15:20 140 10 3.8 5.0 Light rain showers.
2015-Jan-31 14:50 180 7 2.7 5.0 Light rain showers.
2015-Jan-31 14:20 230 11 5.4 5.0 Showers in the vicinity.
2015-Jan-31 13:50 280 12 4.9 5.0 Light rain showers.
2015-Jan-31 13:20 290 16 5.4 5.0 Showers in the vicinity.
2015-Jan-31 12:50 290 16 5.4 6.0
2015-Jan-31 12:20 300 16 5.4 6.0 Light rain.
2015-Jan-31 11:50 310 16 5.4 7.0
2015-Jan-31 11:20 310 17 5.4 7.0
2015-Jan-31 10:50 310 19 5.4 7.0
2015-Jan-31 10:20 320 19 5.4 7.0
2015-Jan-31 09:50 320 18 5.4 7.0
2015-Jan-31 09:20 330 24 5.4 6.0
2015-Jan-31 08:50 340 30 5.4 6.0
2015-Jan-31 08:20 340 27 5.4 6.0
2015-Jan-31 07:50 330 31 5.4 6.0
2015-Jan-31 07:20 330 29 5.4 6.0
2015-Jan-31 06:50 330 30 5.4 6.0
2015-Jan-31 06:20 330 31 5.4 6.0
2015-Jan-31 05:50 340 30 5.4 6.0 Light rain showers.
2015-Jan-31 05:20 340 27 5.4 6.0
2015-Jan-31 04:50 340 25 5.4 6.0 Light rain showers.
2015-Jan-31 04:20 330 23 5.4 6.0 Light rain showers.
2015-Jan-31 03:50 330 20 5.4 6.0 Light rain showers.
2015-Jan-31 03:20 320 20 5.4 6.0 Light rain showers.
2015-Jan-31 02:50 330 15 5.4 6.0
2015-Jan-31 02:20 330 24 5.4 6.0
2015-Jan-31 01:50 340 23 5.4 6.0 Light drizzle.
2015-Jan-31 01:20 330 19 5.4 6.0
2015-Jan-31 00:50 340 20 5.4 6.0
2015-Jan-31 00:20 350 20 5.4 6.0 Light rain showers.
2015-Jan-30 23:50 340 19 5.4 7.0 Light drizzle.
2015-Jan-30 23:20 340 17 5.4 7.0
2015-Jan-30 22:50 320 14 5.4 6.0
2015-Jan-30 22:20 320 14 5.4 6.0 Light rain showers.